{"data":{"norad_id":65572,"intl_designator":"2025-203H","name":"PRAETORIAN SDA_609","alt_names":[],"object_type":"PAYLOAD","status":"ACTIVE","operator":null,"country":"US","launch_date":"2025-09-10","launch_site_code":"AFWTR","launch_vehicle":null,"mission":null,"orbit_class":"UNKNOWN","rcs_meters":null,"size_class":null,"mass_kg":null,"dimensions":null,"purposes":["military"],"wikipedia_slug":null,"has_3d_model":false,"image_url":null,"decayed_at":null,"tle_current":{"epoch":"2026-05-25T02:18:10.118016Z","epoch_age_seconds":66814,"freshness":"FRESH","line1":"1 65572U 25203H   26145.09595044  .00000151  00000+0  12485-3 0  9990","line2":"2 65572  81.3070  32.1734 0005896 254.8263 105.2242 13.84281841 35503","mean_motion":13.84281841,"eccentricity":0.0005896,"inclination_deg":81.307,"raan_deg":32.1734,"arg_perigee_deg":254.8263,"mean_anomaly_deg":105.2242,"bstar":0.00012485,"rev_number":3550,"period_min":104.02505886805,"perigee_km":944.41882342733,"apogee_km":953.05867531099,"semimajor_km":7326.8757493692,"source":"CELESTRAK","updated_at":"2026-05-25T13:38:25.169287Z"}}}